Flag for Germany Weather past 2 weeks in Aschaffenburg, Bavaria, Germany

Now
90 °F

Passing clouds.


Feels Like: 89 °F
Forecast: 71 / 94 °F
Wind: 2 mph from East

Location: Frankfurt / M-Flughafen

Current Time: Jul 3, 2015 at 12:04:14 AM

Latest Report: Jul 2, 2015 at 10:00 PM


Visibility: 31 mi

Pressure: 30.09 "Hg

Humidity: 34%

Dew point: 58 °F

Location of AschaffenburgLocation

Historic Weather in Aschaffenburg — Graph

°F

Aschaffenburg temperature yesterday

Maximum temperature yesterday: 95 °F (at 4:00 PM)
Minimum temperature yesterday: 71 °F (at 6:00 AM)
Average temperature yesterday: 85 °F

Past Weeks' High & Low Weather Summary

 TemperatureHumidityPressure
High95 °F (Jul 2, 4:00 PM)100% (Jun 22, 2:00 AM)30.23 "Hg (Jun 22, 2:00 AM)
Low49 °F (Jun 23, 6:00 AM)21% (Jun 30, 7:00 PM)29.70 "Hg (Jun 22, 11:00 PM)
Average65 °F68%30.08 "Hg
* Reported Jun 17 10:00 PM — Jul 2 10:00 PM, Aschaffenburg, Weather by CustomWeather, © 2015

Note: Actual official high and low records may vary slightly from our data, if they occured in-between our weather recording intervals... More about our weather records

Advertising

Aschaffenburg weather history for previous 24 hours

 ConditionsComfort  
Time TempWeatherWind HumidityBarometerVisibility
10:00 PM
Thu, Jul 2
90 °FPassing clouds.2 mph34%30.09 "Hg31 mi
9:00 PM92 °FPassing clouds.1 mph30%30.07 "Hg31 mi
8:00 PM94 °FPassing clouds.2 mph29%30.06 "Hg34 mi
7:00 PM95 °FPassing clouds.3 mph27%30.06 "Hg34 mi
6:00 PM95 °FPassing clouds.2 mph28%30.06 "Hg34 mi
5:00 PM95 °FSunny.3 mph28%30.07 "Hg34 mi
4:00 PM95 °FPassing clouds.3 mph30%30.07 "Hg34 mi
3:00 PM94 °FSunny.3 mph31%30.07 "Hg34 mi
2:00 PM93 °FSunny.3 mph35%30.09 "Hg31 mi
1:00 PM90 °FSunny.3 mph36%30.10 "Hg31 mi
12:00 PM88 °FSunny.3 mph39%30.11 "Hg31 mi
11:00 AM85 °FPassing clouds.2 mph41%30.11 "Hg31 mi
10:00 AM83 °FPassing clouds.3 mph46%30.11 "Hg31 mi
9:00 AM79 °FPassing clouds.3 mph53%30.12 "Hg31 mi
8:00 AM76 °FPassing clouds.3 mph57%30.12 "Hg31 mi
7:00 AM72 °FPassing clouds.2 mph64%30.11 "Hg31 mi
6:00 AM71 °FPassing clouds.3 mph65%30.11 "Hg31 mi
4:00 AM73 °FMild.3 mph62%30.09 "HgN/A
3:00 AM74 °FClear.3 mph59%30.09 "Hg31 mi
2:00 AM76 °FClear.2 mph56%30.08 "Hg31 mi
1:00 AM77 °FPassing clouds.3 mph54%30.07 "Hg31 mi
12:00 AM77 °FPassing clouds.2 mph54%30.06 "Hg31 mi
Weather by CustomWeather, © 2015

See weather overviewHow to use our weather pages